Weather Roundup
Issued by NWS

Home | Current Version | Previous Version | Graphics & Text | Print | Product List | Glossary Off
Versions: 1 2 3 4 5 6 7 8 9 10 11 12 13 14 15 16 17 18 19 20 21 22 23 24 25 26 27 28 29 30 31 32 33 34 35 36 37 38 39 40 41 42 43 44 45 46 47 48 49 50

000
NZUS93 KARX 251359
HRRWXR

CURRENT HOURLY OBSERVATIONS ACROSS
MUCH OF THE UPPER MISSISSIPPI VALLEY
NATIONAL WEATHER SERVICE LA CROSSE WI
800 AM CST SUN JAN 25 2015


...SOUTHEAST MINNESOTA...


CITY           SKY/WX    TMP DP  RH WIND       PRES   REMARKS
ROCHESTER      CLOUDY    29  24  82 NE16      29.85R WCI  17
ROCHESTER/MAYO CLOUDY    28  22  80 N9G18     29.86R WCI  19
WINONA         CLOUDY    30  27  86 E6        29.90R WCI  24
AUSTIN         CLOUDY    28  25  86 N14       29.84R WCI  17
ALBERT LEA     CLOUDY    28  27  93 N17       29.84R WCI  16
DODGE CENTER   CLOUDY    27  25  93 N15G21    29.86R WCI  15
PRESTON        CLOUDY    28  24  87 NE8       29.84R WCI  19
OWATONNA       CLOUDY    27  21  80 N16G22    29.88R WCI  14
FARIBAULT      CLOUDY    27  21  80 NE13G18   29.91R WCI  16
$$

...ELSEWHERE IN MINNESOTA...


CITY           SKY/WX    TMP DP  RH WIND       PRES   REMARKS
MINNEAPOLIS    MOCLDY    21  12  68 NE14      29.95R WCI   8
INTNL FALLS    CLOUDY     3  -5  69 E6        30.02R WCI  -8
DULUTH         FLURRIES  17  12  80 NE9       29.96R WCI   6
RED WING       CLOUDY    25  16  68 NE7       29.92R WCI  17
REDWOOD FALLS  CLOUDY    30  25  81 NE5       29.93R WCI  25
MANKATO        CLOUDY    27  21  80 NE16      29.90R WCI  14
WORTHINGTON    CLOUDY    30  28  93 N14       29.89R WCI  20
FAIRMONT       CLOUDY    30  27  86 N14       29.87R WCI  20
$$

...SOUTHWEST WISCONSIN...


CITY           SKY/WX    TMP DP  RH WIND       PRES   REMARKS
LA CROSSE      CLOUDY    28  20  71 NE10      29.89R WCI  19
PRAIRIE DU CHI LGT SNOW  27  22  79 NE9G16    29.82R WCI  18
BOSCOBEL       FLURRIES  26  19  74 NE6G20    29.85R WCI  19
LONE ROCK      NOT AVBL
PLATTEVILLE    CLOUDY    27  23  87 N21G28    29.78R WCI  13
FORT MC COY    CLOUDY    23  16  74 E14       29.90R WCI  10
CAMP DOUGLAS   CLOUDY    21  19  93 NE6       29.89R WCI  14
VIROQUA        CLOUDY    23  18  81 NE17      29.82R WCI   9
WIS DELLS      NOT AVBL
$$

...ELSEWHERE IN WISCONSIN...


CITY           SKY/WX    TMP DP  RH WIND       PRES   REMARKS
MILWAUKEE      FLURRIES  26  17  68 NE22G29   29.84R WCI  12
MADISON        FLURRIES  23  19  85 NE14      29.84R WCI  11
GREEN BAY      CLOUDY    18   9  68 NE22      29.96R WCI   1
EAU CLAIRE     NOT AVBL
BLACK RVR FLS  CLOUDY    25  17  70 E10       29.89R WCI  15
MEDFORD        CLOUDY    14   8  76 NE9       29.89R WCI   2
WAUSAU         CLOUDY    16   9  74 NE8       29.91R WCI   5
WIS RAPIDS     CLOUDY    20  10  65 E8        29.92R WCI  10
MARSHFIELD     CLOUDY    19  10  68 NE9       29.90R WCI   8
RICE LAKE      PTCLDY    12   7  81 N8        29.97R WCI   1
$$

...NORTHEAST IOWA...


CITY           SKY/WX    TMP DP  RH WIND       PRES   REMARKS
DECORAH        LGT SNOW  27  25  93 NE10G21   29.79R WCI  17
MASON CITY     CLOUDY    32  30  92 N20       29.81R WCI  20
CHARLES CITY   CLOUDY    32  32 100 NE14G21   29.78R WCI  22
OELWEIN        LGT SNOW  32  28  86 NE16G25   29.75R WCI  21
$$

...ELSEWHERE IN IOWA...


CITY           SKY/WX    TMP DP  RH WIND       PRES   REMARKS
DES MOINES     LGT SNOW  35  32  88 N16       29.70R VSB 1   WCI  25
IOWA CITY      LGT SNOW  33  31  92 NE16G28   29.70R VSB 1   WCI  23
FORT DODGE     CLOUDY    34  30  86 N13       29.80R WCI  25
$$

...NORTHERN ILLINOIS...


CITY           SKY/WX    TMP DP  RH WIND       PRES   REMARKS
CHICAGO-OHARE  LGTSLEET  32  30  92 NE17      29.74R FOG     WCI  21
CHICAGO-MIDWAY LGT RAIN  36  33  89 NE18G24   29.73R WCI  26
MOLINE         LGT SNOW  33  30  88 NE17      29.68R VSB 3/4 WCI  22
ROCKFORD       LGT SNOW  29  25  85 NE22G29   29.77R FOG     WCI  15
PEORIA         LGT RAIN  36  33  89 NE13      29.63R FOG     WCI  27
$$

NOTE: "FAIR" INDICATES FEW OR NO CLOUDS BELOW 12,000 FEET WITH NO
SIGNIFICANT WEATHER AND/OR OBSTRUCTIONS TO VISIBILITY. WIND
SPEEDS ARE IN MILES-PER-HOUR.



USA.gov is the U.S. government's official web portal to all federal, state and local government web resources and services.